[[{"header":{"parameterUnit":"m.s-1","parameterCategory":1,"la1":30.2991,"la2":30.254,"lo1":-89.0895,"lo2":-89.0444,"dy":0.0017,"dx":0.0017,"nx":28,"ny":28,"refTime":"2023-07-20T03:00:00:Z","depth":0,"parameterNumber":2,"parameterNumberName":"U-component_of_WINDS"},"data":[0,0,0,0,0,0,0,0,0,0,0,0,0,0,0,0,0,0,0,0,0,0,0,0,0,0,0,0,0,0,0,0,0,0,0,0,0,0,0,0,0,0,0,0,0,0,0,0,0,0,0,0,0,0,0,0,0,0,-0.6534,-0.6534,0,-0.6464,-0.6463,-0.6462,-0.6429,-0.6429,-0.6429,-0.6429,-0.6355,-0.6354,-0.6352,0,0,0,0,0,0,0,0,0,0,0,0,0,-0.6641,-0.6639,-0.6535,-0.6534,-0.6533,-0.6464,-0.6463,-0.6462,-0.6429,-0.6429,-0.6429,-0.6429,-0.6356,-0.6354,-0.6351,0,0,0,0,0,0,0,0,0,0,0,0,0,-0.6585,-0.6639,-0.6535,-0.6508,-0.6505,-0.6464,-0.6463,-0.6461,-0.6429,-0.6429,-0.6429,-0.6429,-0.6357,-0.6354,-0.6351,-0.6331,0,0,-0.6342,-0.634,0,0,0,0,0,0,0,0,-0.6588,-0.6581,-0.6513,-0.651,-0.6506,-0.6455,-0.6473,-0.6418,-0.6429,-0.6458,-0.6429,-0.6429,-0.6389,-0.6383,-0.6369,-0.6327,-0.6324,-0.6342,-0.634,-0.6338,-0.6338,0,0,0,0,0,0,0,-0.6592,-0.6584,-0.6506,-0.6512,-0.6508,-0.6499,-0.6492,-0.6462,-0.6424,-0.6455,-0.6453,-0.6445,-0.6387,-0.6372,-0.6367,-0.6323,-0.6342,-0.6339,-0.6337,-0.6336,-0.626,-0.626,0,0,0,0,0,0,-0.66,-0.6587,-0.6509,-0.6504,-0.6548,-0.6498,-0.6489,-0.6472,-0.6424,-0.6417,-0.6445,-0.6444,-0.6378,-0.6371,-0.6365,-0.6338,-0.6338,-0.6336,-0.6334,-0.6261,-0.626,-0.626,0,0,0,0,0,0,-0.6603,-0.6594,-0.6511,-0.6545,-0.6534,-0.6496,-0.6477,-0.647,-0.6456,-0.6416,-0.6409,-0.6437,-0.6377,-0.6369,-0.6339,-0.6335,-0.6334,-0.6331,-0.6261,-0.6261,-0.626,-0.6283,0,0,0,0,0,0,-0.6606,-0.6595,-0.6587,-0.6545,-0.6532,-0.6488,-0.6476,-0.6469,-0.6451,-0.6448,-0.6407,-0.64,-0.6377,-0.6344,-0.6336,-0.633,-0.6329,-0.6261,-0.6261,-0.626,-0.6283,-0.6284,-0.6285,0,0,0,0,0,-0.661,-0.6596,-0.6586,-0.6577,-0.6522,-0.6488,-0.648,-0.6454,-0.645,-0.6442,-0.6416,-0.6401,-0.6337,-0.6341,-0.6332,-0.6325,-0.6261,-0.6261,-0.626,-0.6282,-0.6284,-0.6285,0,0,0,0,0,0,-0.6638,-0.659,-0.6579,-0.6551,-0.6524,-0.6482,-0.6471,-0.6456,-0.6429,-0.6428,-0.6396,-0.6387,-0.636,-0.634,-0.6346,-0.6303,-0.6297,-0.6295,-0.6317,-0.6318,-0.6319,-0.6324,-0.6327,0,0,0,0,0,-0.6641,-0.6617,-0.6577,-0.6556,-0.6543,-0.6509,-0.6493,-0.6475,-0.6446,-0.6434,-0.6406,-0.6377,-0.635,-0.6333,-0.6306,-0.628,-0.627,-0.6271,-0.6272,-0.6273,-0.6271,-0.6256,-0.6255,-0.6259,-0.6259,-0.6259,0,0,-0.6646,-0.6617,-0.6604,-0.6561,-0.6537,-0.6514,-0.65,-0.6475,-0.6457,-0.643,-0.64,-0.6379,-0.6345,-0.6317,-0.6303,-0.6299,-0.6268,-0.6272,-0.6273,-0.6271,-0.6255,-0.6255,-0.6255,-0.6258,-0.6258,-0.6259,0,0,-0.6645,-0.6621,-0.6601,-0.6577,-0.6542,-0.652,-0.6515,-0.6476,-0.6461,-0.6431,-0.641,-0.6388,-0.6342,-0.6319,-0.6301,-0.629,-0.6276,-0.6283,-0.6287,-0.6273,-0.6272,-0.6272,-0.6268,-0.6267,-0.6281,-0.6281,-0.6281,0,-0.6656,-0.662,-0.6592,-0.6569,-0.655,-0.6525,-0.6504,-0.6483,-0.6441,-0.6429,-0.6425,-0.6367,-0.6342,-0.6308,-0.6306,-0.6292,-0.6286,-0.6287,-0.6275,-0.6274,-0.6273,-0.6269,-0.6268,-0.6282,-0.6282,-0.6282,-0.6282,0,-0.6635,-0.661,-0.6599,-0.6559,-0.6539,-0.6517,-0.6486,-0.6469,-0.6453,-0.6431,-0.6401,-0.637,-0.6337,-0.6327,-0.6311,-0.6291,-0.629,-0.6281,-0.6275,-0.6274,-0.627,-0.6268,-0.6284,-0.6283,-0.6283,-0.6283,0,0,-0.6649,-0.6594,-0.659,-0.6572,-0.6531,-0.6511,-0.6488,-0.6456,-0.6442,-0.6414,-0.6393,-0.6356,-0.6347,-0.6327,-0.6308,-0.6295,-0.6289,-0.6287,-0.6286,-0.6289,-0.6264,-0.6271,-0.627,-0.6279,-0.6278,-0.6278,-0.6267,0,-0.6642,-0.6599,-0.6574,-0.6542,-0.6518,-0.6494,-0.6474,-0.6447,-0.6426,-0.6403,-0.6379,-0.6353,-0.6344,-0.6332,-0.6318,-0.6292,-0.6283,-0.6293,-0.6259,-0.6258,-0.6268,-0.6268,-0.6275,-0.6266,-0.6265,-0.6265,-0.6265,0,-0.6627,-0.66,-0.6565,-0.6527,-0.6516,-0.6499,-0.6467,-0.6445,-0.6414,-0.6399,-0.6377,-0.6358,-0.6333,-0.6329,-0.6293,-0.63,-0.6285,-0.6271,-0.627,-0.6265,-0.6261,-0.6263,-0.6262,-0.6261,-0.6262,-0.6262,-0.6262,0,-0.664,-0.6595,-0.6568,-0.6553,-0.6508,-0.6496,-0.6477,-0.6446,-0.6428,-0.64,-0.6388,-0.6357,-0.6341,-0.6317,-0.6291,-0.629,-0.6258,-0.6252,-0.6245,-0.6246,-0.6239,-0.6239,-0.6236,-0.623,-0.623,-0.623,-0.623,0,-0.6634,-0.6614,-0.6573,-0.6557,-0.6534,-0.6505,-0.6483,-0.6461,-0.6434,-0.6413,-0.639,-0.6371,-0.6337,-0.6313,-0.6292,-0.6266,-0.6259,-0.6246,-0.6241,-0.6248,-0.625,-0.6237,-0.6237,-0.6229,-0.6229,-0.6229,-0.6229,0,-0.6645,-0.6617,-0.6586,-0.6546,-0.6536,-0.652,-0.6486,-0.6469,-0.6447,-0.6421,-0.6413,-0.6378,-0.635,-0.6321,-0.6282,-0.6268,-0.6242,-0.6235,-0.6252,-0.6249,-0.6244,-0.6245,-0.6232,-0.6229,-0.6226,-0.6226,-0.6226,0,-0.6643,-0.6627,-0.6585,-0.6569,-0.6551,-0.6526,-0.6507,-0.6478,-0.646,-0.6423,-0.6411,-0.6381,-0.6355,-0.631,-0.6281,-0.6251,-0.6243,-0.624,-0.6238,-0.6246,-0.6242,-0.6244,-0.6242,-0.6241,-0.6241,-0.6242,-0.6242,0,-0.6642,-0.6629,-0.6603,-0.6573,-0.6552,-0.6526,-0.65,-0.6488,-0.6454,-0.6435,-0.6405,-0.6385,-0.6346,-0.6316,-0.6283,-0.6262,-0.6246,-0.6243,-0.624,-0.6247,-0.6258,-0.6251,-0.6255,-0.6243,-0.6243,-0.6243,-0.6243,-0.6243,-0.6646,-0.6631,-0.6599,-0.6571,-0.6548,-0.6524,-0.6506,-0.6482,-0.6457,-0.6423,-0.6407,-0.6377,-0.6346,-0.63,-0.628,-0.6257,-0.6252,-0.6248,-0.6247,-0.6246,-0.6247,-0.6262,-0.6251,-0.625,-0.625,-0.625,-0.625,0,-0.6644,-0.6622,-0.6597,-0.6561,-0.6539,-0.6526,-0.6496,-0.6479,-0.6453,-0.6426,-0.6401,-0.6367,-0.6338,-0.6307,-0.6276,-0.6263,-0.6254,-0.6255,-0.6256,-0.6251,-0.6253,-0.6259,-0.6263,-0.6263,-0.6263,-0.6263,-0.6263,-0.6263,-0.664,-0.6613,-0.6597,-0.6558,-0.6536,-0.6507,-0.6491,-0.6469,-0.6447,-0.641,-0.6386,-0.6366,-0.6337,-0.6304,-0.6276,-0.6268,-0.6258,-0.6261,-0.625,-0.6252,-0.6251,-0.6251,-0.6256,-0.6259,-0.6259,-0.625,-0.625,-0.625]},{"header":{"parameterUnit":"m.s-1","parameterCategory":1,"la1":30.2991,"la2":30.254,"lo1":-89.0895,"lo2":-89.0444,"dy":0.0017,"dx":0.0017,"nx":28,"ny":28,"refTime":"2023-07-20T03:00:00:Z","depth":0,"parameterNumber":3,"parameterNumberName":"V-component_of_WINDS"},"data":[0,0,0,0,0,0,0,0,0,0,0,0,0,0,0,0,0,0,0,0,0,0,0,0,0,0,0,0,0,0,0,0,0,0,0,0,0,0,0,0,0,0,0,0,0,0,0,0,0,0,0,0,0,0,0,0,0,0,3.54,3.5399,0,3.5272,3.527,3.5269,3.5213,3.5213,3.5213,3.5213,3.5074,3.507,3.5066,0,0,0,0,0,0,0,0,0,0,0,0,0,3.5591,3.5588,3.5401,3.5399,3.5397,3.5272,3.527,3.5268,3.5213,3.5213,3.5213,3.5213,3.5075,3.5071,3.5066,0,0,0,0,0,0,0,0,0,0,0,0,0,3.549,3.5587,3.5401,3.5355,3.5349,3.5272,3.527,3.5268,3.5213,3.5213,3.5213,3.5214,3.5077,3.5071,3.5065,3.5022,0,0,3.5047,3.5045,0,0,0,0,0,0,0,0,3.5496,3.5483,3.5363,3.5358,3.5351,3.5259,3.5286,3.5185,3.5212,3.5264,3.5213,3.5214,3.5135,3.5124,3.5099,3.5016,3.501,3.5047,3.5043,3.5041,3.5039,0,0,0,0,0,0,0,3.5503,3.5488,3.5349,3.5361,3.5354,3.5338,3.5324,3.5267,3.5199,3.526,3.5255,3.5241,3.5131,3.5105,3.5095,3.5008,3.5047,3.5042,3.5038,3.5036,3.4883,3.4883,0,0,0,0,0,0,3.5518,3.5494,3.5353,3.5345,3.5426,3.5334,3.5319,3.5288,3.5199,3.5186,3.5241,3.5239,3.5115,3.5102,3.509,3.5034,3.5041,3.5035,3.5032,3.4884,3.4883,3.4882,0,0,0,0,0,0,3.5523,3.5506,3.5358,3.5419,3.5399,3.5331,3.5297,3.5285,3.5258,3.5185,3.5172,3.5227,3.5114,3.5098,3.504,3.5028,3.5032,3.5027,3.4884,3.4883,3.4883,3.4922,0,0,0,0,0,0,3.5529,3.5508,3.5493,3.5419,3.5396,3.5313,3.5296,3.5283,3.5249,3.5246,3.5168,3.5156,3.5113,3.5049,3.5034,3.502,3.5023,3.4885,3.4884,3.4883,3.4922,3.4923,3.4924,0,0,0,0,0,3.5536,3.5507,3.5492,3.5476,3.5375,3.5312,3.5299,3.5253,3.5249,3.5232,3.5185,3.5158,3.5033,3.5044,3.5026,3.5011,3.4885,3.4884,3.4883,3.4921,3.4923,3.4924,0,0,0,0,0,0,3.5578,3.5497,3.5479,3.5427,3.5377,3.5303,3.528,3.5256,3.5204,3.5202,3.5145,3.5128,3.5075,3.5037,3.5051,3.4965,3.4957,3.4952,3.4991,3.4992,3.4994,3.5003,3.5018,0,0,0,0,0,3.5583,3.5541,3.547,3.5431,3.5407,3.5348,3.5319,3.5288,3.5233,3.5211,3.516,3.5106,3.5054,3.5021,3.4969,3.4916,3.4898,3.4897,3.4898,3.4899,3.4896,3.4865,3.4863,3.4878,3.4878,3.4878,0,0,3.5589,3.5539,3.5515,3.5438,3.5396,3.5352,3.5331,3.5284,3.5251,3.5203,3.5146,3.5107,3.5042,3.4987,3.496,3.4954,3.4888,3.4898,3.4899,3.4895,3.4863,3.4862,3.4861,3.4878,3.4878,3.4878,0,0,3.5578,3.5537,3.55,3.5459,3.5397,3.5358,3.5349,3.5279,3.5252,3.5194,3.5158,3.5116,3.5028,3.4984,3.495,3.4925,3.4899,3.491,3.4915,3.4886,3.4885,3.4883,3.4874,3.4871,3.4906,3.4907,3.4907,0,3.5593,3.5528,3.5483,3.544,3.5406,3.5365,3.5325,3.5287,3.521,3.5187,3.5182,3.5072,3.5026,3.4959,3.4954,3.4928,3.4915,3.4918,3.4889,3.4887,3.4885,3.4876,3.4872,3.4908,3.4908,3.4908,3.4908,0,3.5549,3.5505,3.5482,3.5412,3.5376,3.5335,3.5282,3.525,3.5223,3.5184,3.5126,3.5069,3.5006,3.4988,3.4959,3.4917,3.4915,3.4901,3.4891,3.4886,3.4876,3.4872,3.4911,3.491,3.491,3.4909,0,0,3.5561,3.5469,3.5461,3.5429,3.5358,3.5321,3.5278,3.5219,3.5193,3.5141,3.5103,3.5031,3.5017,3.4978,3.4945,3.4919,3.4903,3.4907,3.4904,3.4908,3.4853,3.4864,3.4861,3.4885,3.4884,3.4884,3.4858,0,3.554,3.5464,3.5423,3.5362,3.532,3.5281,3.5243,3.5194,3.5157,3.5114,3.5072,3.5022,3.5007,3.4984,3.4957,3.4911,3.4891,3.4912,3.4847,3.4845,3.4864,3.4856,3.4867,3.4846,3.4854,3.4853,3.4853,0,3.5506,3.5459,3.5395,3.5331,3.5311,3.5278,3.5221,3.5181,3.5125,3.5099,3.5058,3.5025,3.4976,3.4972,3.4903,3.4918,3.4889,3.4863,3.4861,3.4852,3.4848,3.4846,3.4838,3.4834,3.4846,3.4847,3.4847,0,3.552,3.544,3.5393,3.5366,3.529,3.5268,3.5234,3.5179,3.5146,3.5095,3.5073,3.5016,3.4985,3.4941,3.4893,3.4895,3.4829,3.482,3.4805,3.4807,3.4792,3.4794,3.4779,3.4775,3.4775,3.4775,3.4775,0,3.5501,3.5464,3.5398,3.5369,3.5326,3.5278,3.5235,3.5198,3.515,3.5111,3.5072,3.5036,3.4976,3.4931,3.4893,3.4842,3.4828,3.4805,3.4795,3.4808,3.4811,3.4788,3.4788,3.4774,3.4775,3.4775,3.4775,0,3.551,3.5465,3.541,3.5343,3.5325,3.5296,3.5238,3.5206,3.5168,3.512,3.5105,3.5044,3.4991,3.4939,3.4866,3.4841,3.4789,3.4776,3.4809,3.4804,3.4791,3.4793,3.476,3.4753,3.4755,3.4755,3.4755,0,3.5501,3.5472,3.5403,3.5375,3.5344,3.53,3.5267,3.5219,3.5186,3.5121,3.5097,3.5041,3.4994,3.4909,3.4857,3.4801,3.4787,3.4779,3.4778,3.4792,3.4786,3.4788,3.4785,3.478,3.478,3.478,3.478,0,3.5489,3.5468,3.5424,3.5373,3.5336,3.5292,3.5247,3.5226,3.5168,3.5133,3.5079,3.5043,3.497,3.4915,3.4853,3.4816,3.4788,3.4782,3.4775,3.4787,3.4808,3.4796,3.4812,3.4782,3.4782,3.4782,3.4782,3.4782,3.5487,3.546,3.5408,3.536,3.5322,3.5281,3.5249,3.5208,3.5163,3.5102,3.5076,3.5021,3.4965,3.4881,3.4844,3.48,3.4793,3.4783,3.4781,3.4779,3.4782,3.4816,3.4788,3.4788,3.4788,3.4788,3.4788,0,3.5474,3.5439,3.5396,3.5335,3.5298,3.5278,3.5227,3.5196,3.5149,3.5101,3.5057,3.4995,3.4941,3.4886,3.4829,3.4803,3.4789,3.479,3.4791,3.4783,3.4791,3.4803,3.4803,3.4803,3.4803,3.4803,3.4803,3.4803,3.5462,3.5415,3.5389,3.5322,3.5286,3.5235,3.5207,3.5169,3.513,3.5064,3.5021,3.4986,3.4934,3.4874,3.4823,3.4808,3.4788,3.4793,3.4774,3.4783,3.4782,3.4781,3.4792,3.4789,3.4789,3.4769,3.4769,3.4769]}]]